User: anonymous   Login
Location: Unspecified
(0.0000°N, 0.0000°E)
Time: 23:35:12
(UTC+00:00)
Language:

USA 264 - Orbit

View from above orbital plane
View from above orbital plane
View from above satellite
View from above satellite

Ground track
Ground track

The orbit data is extracted from the following two-line orbital elements,

1 40964U 15058A   17343.26254330 0.00000000  00000-0  00000-0 0    08
2 40964  63.4416  75.3144 0060000 173.8554 186.1446 13.40740920    02
Epoch (UTC): 09 December 2017 06:18:03
Eccentricity: 0.0060000
inclination: 63.4416°
perigee height: 1061 km
apogee height: 1151 km
right ascension of ascending node: 75.3144°
argument of perigee: 173.8554°
revolutions per day: 13.40740920
mean anomaly at epoch: 186.1446°
orbit number at epoch: 0

The dashed part of the orbit path shows where the satellite is in the earth's shadow,  

DLR